Chicopee, MA

6:24 AM EST on January 21, 2018 (GMT -0500)
Westover Air Reserve Base / Metropolitan Airport

Weather History for KCEF - April, 2013

Change the Weather History Date:

Tuesday, April 2, 2013

  Actual Average Record
Temperature  
Mean Temperature 32 °F -  
Max Temperature 40 °F 49 °F 66 °F (2009)
Min Temperature 25 °F 31 °F 20 °F (2015)
Degree Days  
Heating Degree Days 33    
Moisture  
Dew Point 13 °F    
Average Humidity 44    
Maximum Humidity 65    
Minimum Humidity 28    
Precipitation  
Precipitation 0.00 in - - ()
Sea Level Pressure  
Sea Level Pressure 29.91 in    
Wind  
Wind Speed 13 mph (WNW)    
Max Wind Speed 26 mph    
Max Gust Speed 39 mph    
Visibility 10 miles    
Events      
Averages and records for this station are not official NWS values.
T = Trace of Precipitation, MM = Missing Value Source: NWS Daily Summary

Daily Weather History Graph

Daily Weather History Graph

Search for Another Location

Airport or City:

Trip Planner

Search our weather history database for the weather conditions in past years. The results will help you decide how hot, cold, wet, or windy it might be!

Date:

Astronomy

Apr. 02, 2013 Rise Set
Actual Time 6:30 AM EDT 7:17 PM EDT
Civil Twilight 6:02 AM EDT 7:45 PM EDT
Nautical Twilight 5:28 AM EDT 8:19 PM EDT
Astronomical Twilight 4:53 AM EDT 8:54 PM EDT
Moon 1:23 AM EDT (4/2) 11:14 AM EDT (4/2)
Length of Visible Light 13h 43m
Length of Day
12h 46m
Waning Gibbous, 56% of the Moon is Illuminated
Apr 2
Waning Gibbous
Apr 3
Last Quarter
Apr 10
New
Apr 18
First Quarter
Apr 25
Full

Hourly Weather History & Observations

Time (EDT) Temp. Windchill Dew Point Humidity Pressure Visibility Wind Dir Wind Speed Gust Speed Precip Events Conditions
12:55 AM 31.8 °F 21.8 °F 11.5 °F 43% 29.86 in 10.0 mi NNW 13.8 mph 23.0 mph N/A   Clear
1:55 AM 30.4 °F 22.9 °F 12.0 °F 47% 29.87 in 10.0 mi WNW 8.1 mph - N/A   Clear
2:55 AM 29.5 °F 21.1 °F 13.5 °F 51% 29.87 in 10.0 mi WNW 9.2 mph - N/A   Clear
3:55 AM 28.0 °F 22.8 °F 14.7 °F 57% 29.87 in 10.0 mi WSW 4.6 mph - N/A   Clear
4:55 AM 25.3 °F 16.0 °F 14.9 °F 65% 29.86 in 10.0 mi SW 9.2 mph - N/A   Clear
5:55 AM 27.9 °F 20.6 °F 15.4 °F 60% 29.88 in 10.0 mi WSW 6.9 mph - N/A   Clear
6:55 AM 27.0 °F 20.5 °F 15.8 °F 63% 29.90 in 10.0 mi WSW 5.8 mph - N/A   Clear
7:55 AM 30.7 °F 22.0 °F 16.7 °F 56% 29.92 in 10.0 mi West 10.4 mph 21.9 mph N/A   Clear
8:55 AM 32.9 °F 22.8 °F 14.7 °F 47% 29.92 in 10.0 mi WNW 15.0 mph 21.9 mph N/A   Partly Cloudy
9:55 AM 32.5 °F 21.5 °F 13.5 °F 45% 29.93 in 10.0 mi West 17.3 mph 33.4 mph N/A   Mostly Cloudy
10:55 AM 35.8 °F 25.1 °F 10.8 °F 36% 29.93 in 10.0 mi West 19.6 mph 33.4 mph N/A   Scattered Clouds
11:55 AM 37.4 °F 27.8 °F 9.0 °F 31% 29.91 in 10.0 mi West 17.3 mph 28.8 mph N/A   Scattered Clouds
12:55 PM 37.4 °F 25.6 °F 9.1 °F 31% 29.90 in 10.0 mi West 26.5 mph 34.5 mph N/A   Mostly Cloudy
1:55 PM 39.7 °F 29.7 °F 8.8 °F 28% 29.88 in 10.0 mi West 21.9 mph 28.8 mph N/A   Partly Cloudy
2:55 PM 39.2 °F 28.0 °F 8.1 °F 28% 29.88 in 10.0 mi WNW 26.5 mph 39.1 mph N/A   Partly Cloudy
3:55 PM 39.2 °F 29.6 °F 9.1 °F 29% 29.88 in 10.0 mi WNW 19.6 mph 28.8 mph N/A   Partly Cloudy
4:39 PM 37.4 °F 28.5 °F 12.2 °F 36% 29.90 in 10.0 mi WNW 15.0 mph 23.0 mph N/A   Mostly Cloudy
4:48 PM 37.4 °F 27.8 °F 14.0 °F 38% 29.90 in 10.0 mi WNW 17.3 mph 24.2 mph N/A   Mostly Cloudy
4:55 PM 38.1 °F 29.1 °F 15.1 °F 39% 29.90 in 10.0 mi NW 16.1 mph 23.0 mph 0.00 in   Scattered Clouds
5:55 PM 37.2 °F 28.3 °F 10.8 °F 34% 29.91 in 10.0 mi WNW 15.0 mph 28.8 mph N/A   Partly Cloudy
6:55 PM 35.1 °F 27.4 °F 11.8 °F 38% 29.94 in 10.0 mi West 10.4 mph 20.7 mph N/A   Partly Cloudy
7:55 PM 31.8 °F 24.6 °F 12.7 °F 45% 29.97 in 10.0 mi NW 8.1 mph - N/A   Partly Cloudy
8:55 PM 32.7 °F 25.0 °F 12.9 °F 44% 30.00 in 10.0 mi WNW 9.2 mph - N/A   Mostly Cloudy
9:55 PM 32.2 °F 22.7 °F 15.6 °F 51% 30.00 in 10.0 mi West 12.7 mph - N/A   Scattered Clouds
10:55 PM 32.4 °F 24.0 °F 14.7 °F 48% 29.99 in 10.0 mi West 10.4 mph - N/A   Scattered Clouds
11:55 PM 32.7 °F 21.8 °F 14.5 °F 47% 29.99 in 10.0 mi WNW 17.3 mph 23.0 mph N/A   Scattered Clouds